TimePDT,TemperatureF,Dew PointF,Humidity,Sea Level PressureIn,VisibilityMPH,Wind Direction,Wind SpeedMPH,Gust SpeedMPH,PrecipitationIn,Events,Conditions,WindDirDegrees,DateUTC
12:56 AM,44.1,39.9,85,29.95,10.0,ESE,3.5,-,N/A,,Clear,110,2012-10-08 07:56:00
1:56 AM,43.0,39.0,86,29.96,10.0,SE,5.8,-,N/A,,Clear,130,2012-10-08 08:56:00
2:56 AM,43.0,39.0,86,29.96,10.0,SE,4.6,-,N/A,,Clear,130,2012-10-08 09:56:00
3:56 AM,42.1,39.0,89,29.95,10.0,Calm,Calm,-,N/A,,Clear,0,2012-10-08 10:56:00
4:56 AM,43.0,39.9,89,29.96,10.0,East,5.8,-,0.01,,Clear,100,2012-10-08 11:56:00
5:56 AM,41.0,37.9,89,29.96,10.0,ESE,5.8,-,N/A,,Clear,110,2012-10-08 12:56:00
6:56 AM,42.1,39.0,89,29.96,9.0,ESE,5.8,-,N/A,,Clear,110,2012-10-08 13:56:00
7:56 AM,44.1,42.1,93,29.97,9.0,ESE,5.8,-,N/A,,Clear,110,2012-10-08 14:56:00
8:56 AM,48.0,46.0,93,29.98,10.0,ESE,6.9,-,N/A,,Clear,110,2012-10-08 15:56:00
9:19 AM,51.8,48.2,88,29.97,10.0,Calm,Calm,-,N/A,,Partly Cloudy,0,2012-10-08 16:19:00
9:56 AM,55.0,50.0,83,29.98,10.0,Calm,Calm,-,N/A,,Clear,0,2012-10-08 16:56:00
10:56 AM,55.9,46.9,72,30.00,10.0,NNW,6.9,-,N/A,,Clear,330,2012-10-08 17:56:00
11:56 AM,57.0,46.9,69,29.99,10.0,NW,4.6,-,N/A,,Clear,310,2012-10-08 18:56:00
12:56 PM,57.0,46.9,69,29.99,10.0,WNW,4.6,-,N/A,,Clear,290,2012-10-08 19:56:00
1:56 PM,57.0,46.0,67,29.98,10.0,West,5.8,-,N/A,,Clear,280,2012-10-08 20:56:00
2:56 PM,59.0,46.0,62,29.97,10.0,WNW,3.5,-,N/A,,Clear,290,2012-10-08 21:56:00
3:56 PM,57.9,46.9,67,29.97,10.0,West,4.6,-,N/A,,Clear,270,2012-10-08 22:56:00
4:56 PM,55.9,48.0,75,29.97,10.0,NW,3.5,-,N/A,,Clear,320,2012-10-08 23:56:00
5:56 PM,54.0,46.9,77,29.97,10.0,WSW,3.5,-,N/A,,Clear,250,2012-10-09 00:56:00
6:56 PM,52.0,45.0,77,29.98,10.0,Calm,Calm,-,N/A,,Clear,0,2012-10-09 01:56:00
7:56 PM,50.0,45.0,83,29.99,10.0,Calm,Calm,-,N/A,,Clear,0,2012-10-09 02:56:00
8:56 PM,53.1,48.0,83,30.00,10.0,SW,6.9,-,N/A,,Clear,220,2012-10-09 03:56:00
9:56 PM,52.0,48.0,86,30.02,10.0,SSW,6.9,-,N/A,,Clear,210,2012-10-09 04:56:00
10:56 PM,51.1,46.9,86,30.04,10.0,SSW,5.8,-,N/A,,Clear,200,2012-10-09 05:56:00
11:13 PM,51.8,46.4,82,30.03,10.0,SSW,5.8,-,N/A,,Scattered Clouds,200,2012-10-09 06:13:00
11:22 PM,50.0,46.4,87,30.03,10.0,SW,6.9,-,N/A,,Mostly Cloudy,220,2012-10-09 06:22:00
11:31 PM,50.0,46.4,87,30.04,9.0,SSW,8.1,-,N/A,,Overcast,210,2012-10-09 06:31:00
11:56 PM,50.0,46.9,89,30.06,3.0,South,4.6,-,N/A,,Overcast,180,2012-10-09 06:56:00